SCP
0 0 0 0 0 0 0 0 0 0 0 0 0 0 0 0 0 0 0 0 0 0 0 0 0 0 0 0 0 0 0 0 0 0 0 0 0 0 0 0 0 0 0
0 0 0 0 0 0 0 0 0 0 0 0 0 0 0 0 0 0 0 0 0 0 0 0 0 0 0 0 0 0 0 0 0 0 0 0 0 0 0 0 0 0 0
0 0 0 0 0 0 0 0 0 0 0 0 0 0 0 0 0 0 0 0 0 0 0 0 0 0 0 0 0 0 0 0 0 0 0 0 0 0 0 0 0 0 0
0 0 0 0 0 0 0 0 0 0 0 0 0 0 0 0 0 0 0 0 0 0 0 0 0 0 0 0 0 0 0 0 0 0 0 0 0 0 0 0 0 0 0
0 0 0 0 0 0 0 0 0 0 0 0 0 0 0 0 0 0 0 0 0 0 0 0 0 0 0 0 0 0 0 0 0 0 0 0 0 0 0 0 0 0 0
0 0 0 0 0 0 0 0 0 0 0 0 0 0 0 0 0 0 0 0 0 0 0 0 0 0 0 0 0 0 0 0 0 0 0 0 0 0 0 0 0 0 0
0 0 0 0 0 0 0 0 0 0 0 0 0 0 0 0 0 0 0 0 0 0 0 0 0 0 0 0 0 0 0 0 0 0 0 0 0 0 0 0 0 0 0
0 0 0 0 0 0 0 0 0 0 0 0 0 0 0 0 0 0 0 0 0 0 0 0 0 0 0 0 0 0 0 0 0 0 0 0 0 0 0 0 0 0 0
0 0 0 0 0 0 0 0 0 0 0 0 0 0 0 0 0 0 0 0 0 0 0 0 0 0 0 0 0 0 0 0 0 0 0 0 0 0 0 0 0 0 0
0 0 0 0 0 0 0 0 0 0 0 0 0 0 0 0 0 0 0 0 0 0 0 0 0 0 0 0 0 0 0 0 0 0 0 0 0 0 0 0 0 0 0
0 0 0 0 0 0 0 0 0 0 0 0 0 0 0 0 0 0 0 0 0 0 0 0 0 0 0 0 0 0 0 0 0 0 0 0 0 0 0 0 0 0 0
0 0 0 0 0 0 0 0 0 0 0 0 0 0 0 0 0 0 0 0 0 0 0 0 0 0 0 0 0 0 0 0 0 0 0 0 0 0 0 0 0 0 0
0 0 0 0 0 0 0 0 0 0 0 0 0 0 0 0 0 0 0 0 0 0 0 0 0 0 0 0 0 0 0 0 0 0 0 0 0 0 0 0 0 0 0
0 0 0 0 0 0 0 0 0 0 0 0 0 0 0 0 0 0 0 0 0 0 0 0 0 0 0 0 0 0 0 0 0 0 0 0 0 0 0 0 0 0 0
0 0 0 0 0 0 0 0 0 0 0 0 0 0 0 0 0 0 0 0 0 0 0 0 0 0 0 0 0 0 0 0 0 0 0 0 0 0 0 0 0 0 0
0 0 0 0 0 0 0 0 0 0 0 0 0 0 0 0 0 0 0 0 0 0 0 0 0 0 0 0 0 0 0 0 0 0 0 0 0 0 0 0 0 0 0
0 0 0 0 0 0 0 0 0 0 0 0 0 0 0 0 0 0 0 0 0 0 0 0 0 0 0 0 0 0 0 0 0 0 0 0 0 0 0 0 0 0 0
0 0 0 0 0 0 0 0 0 0 0 0 0 0 0 0 0 0 0 0 0 0 0 0 0 0 0 0 0 0 0 0 0 0 0 0 0 0 0 0 0 0 0
0 0 0 0 0 0 0 0 0 0 0 0 0 0 0 0 0 0 0 0 0 0 0 0 0 0 0 0 0 0 0 0 0 0 0 0 0 0 0 0 0 0 0
0 0 0 0 0 0 0 0 0 0 0 0 0 0 0 0 0 0 0 0 0 0 0 0 0 0 0 0 0 0 0 0 0 0 0 0 0 0 0 0 0 0 0
0 0 0 0 0 0 0 0 0 0 0 0 0 0 0 0 0 0 0 0 0 0 0 0 0 0 0 0 0 0 0 0 0 0 0 0 0 0 0 0 0 0 0
0 0 0 0 0 0 0 0 0 0 0 0 0 0 0 0 0 0 0 0 0 0 0 0 0 0 0 0 0 0 0 0 0 0 0 0 0 0 0 0 0 0 0
0 0 0 0 0 0 0 0 0 0 0 0 0 0 0 0 0 0 0 0 0 0 0 0 0 0 0 0 0 0 0 0 0 0 0 0 0 0 0 0 0 0 0
0 0 0 0 0 0 0 0 0 0 0 0 0 0 0 0 0 0 0 0 0 0 0 0 0 0 0 0 0 0 0 0 0 0 0 0 0 0 0 0 0 0 0
0 0 0 0 0 0 0 0 0 0 0 0 0 0 0 0 0 0 0 0 0 0 0 0 0 0 0 0 0 0 0 0 0 0 0 0 0 0 0 0 0 0 0
0 0 0 0 0 0 0 0 0 0 0 0 0 0 0 0 0 0 0 0 0 0 0 0 0 0 0 0 0 0 0 0 0 0 0 0 0 0 0 0 0 0 0
Wind_Speed_500mb
13 11 11 10 9 9 7 6 4 3 3 3 6 7 7 9 10 11 13 23 22 21 24 23 23 23 21 23 21 21 22 24 24 25 25 28 25 24 23 23 21 21 18
19 18 18 17 15 14 13 12 11 10 10 10 11 13 15 15 16 19 22 29 27 25 24 27 30 29 27 25 25 27 26 27 27 28 28 30 33 29 28 27 25 25 27
26 25 25 23 21 18 17 19 20 22 21 21 19 24 25 26 28 29 34 34 38 37 35 34 33 36 34 34 32 32 32 32 34 33 33 35 36 35 33 32 30 28 28
32 32 31 30 27 27 26 26 28 29 31 35 39 40 42 42 43 44 48 46 48 48 52 48 47 45 44 42 43 43 43 43 44 44 41 41 42 43 42 41 39 35 35
32 34 34 33 32 33 34 37 36 39 40 44 46 46 51 54 57 59 59 58 60 61 62 65 63 60 59 57 52 52 54 54 54 56 55 53 49 49 50 50 47 46 43
33 36 38 39 39 38 41 43 44 48 52 53 57 61 62 65 63 69 67 66 67 70 69 71 73 75 71 70 67 61 60 60 64 66 66 66 63 58 58 57 54 51 50
41 41 43 46 49 46 47 52 56 59 62 62 66 73 78 75 77 77 74 74 74 77 79 76 78 78 80 79 77 77 70 67 69 75 76 78 74 69 65 64 62 59 57
50 49 48 47 46 53 50 52 59 62 72 70 76 76 68 64 80 78 76 75 70 72 73 73 78 78 80 83 86 84 83 79 74 75 81 87 85 81 75 71 70 67 63
45 44 47 49 50 52 54 54 55 62 65 65 72 76 42 37 47 51 51 65 63 69 72 75 76 74 77 81 84 91 90 87 88 83 80 88 90 94 89 81 78 75 70
40 41 42 43 45 48 52 52 55 58 63 71 71 72 85 78 71 56 65 49 63 77 87 83 85 84 84 83 86 89 94 96 93 91 90 91 94 96 100 92 85 80 78
36 36 39 40 46 48 51 52 53 59 61 68 75 75 81 81 85 83 88 79 84 89 94 91 93 97 92 90 91 91 88 87 89 96 99 96 99 101 103 101 99 92 86
32 32 38 43 45 48 53 54 60 63 68 75 71 79 85 81 83 80 91 103 102 102 100 98 99 94 91 87 89 88 86 83 82 84 88 97 99 104 109 106 103 99 92
19 23 29 35 42 48 53 57 60 64 64 71 74 77 82 83 85 87 89 101 103 113 100 94 100 97 93 92 93 89 83 81 75 78 81 87 92 97 112 113 112 110 101
20 23 26 29 32 35 39 44 50 56 64 73 78 81 82 85 85 87 89 88 91 100 99 94 87 83 82 82 77 76 75 72 70 73 79 77 80 86 88 98 117 115 108
24 26 30 32 35 39 43 48 52 55 59 63 67 72 76 79 80 88 86 84 88 94 113 91 77 80 87 83 82 81 83 79 82 80 77 76 80 81 83 86 102 118 124
30 33 36 38 40 42 46 49 53 54 60 64 68 71 75 77 79 78 84 83 82 85 98 119 89 81 92 90 94 94 94 92 90 83 79 81 81 85 87 87 88 111 123
34 38 40 44 47 48 50 54 56 59 62 65 66 70 74 74 77 79 80 81 84 85 94 129 102 101 100 102 105 99 98 91 91 83 79 78 82 86 85 85 85 99 113
40 45 48 51 53 55 57 60 64 66 70 72 74 75 77 76 79 79 79 79 80 81 87 103 118 106 107 111 111 107 105 98 92 88 82 81 83 87 88 82 79 79 104
51 56 60 62 63 64 65 66 68 71 72 73 75 78 81 82 84 81 78 80 78 81 82 85 103 99 101 101 108 105 105 100 95 92 88 87 85 85 84 76 69 83 113
58 60 61 63 64 65 65 67 70 72 74 75 75 77 80 83 86 86 84 85 83 80 78 84 92 101 100 99 104 104 106 101 97 91 89 85 83 80 72 58 64 99 107
62 64 67 66 67 69 70 74 77 81 83 85 83 82 83 84 84 83 83 85 77 74 76 82 87 83 91 85 93 99 103 101 102 94 93 88 76 70 63 56 80 86 81
65 68 71 75 77 76 76 77 81 87 87 87 89 87 85 86 86 87 86 80 67 66 73 79 89 92 98 88 83 89 93 91 85 86 77 76 60 57 53 54 71 72 75
71 75 78 82 85 85 84 85 85 90 93 93 91 91 91 87 85 87 86 84 80 71 62 70 81 89 93 90 86 86 85 85 89 88 74 63 54 47 42 42 61 71 71
77 81 83 86 89 89 87 88 90 91 94 94 92 90 90 89 82 75 77 81 79 77 74 69 68 76 82 86 80 78 74 73 73 70 56 45 42 34 35 29 34 56 71
77 80 82 86 89 89 84 83 86 90 94 94 92 89 86 84 75 59 67 75 79 77 72 68 64 65 69 71 68 65 63 54 57 55 42 35 26 26 27 28 39 59 64
81 83 84 80 79 82 78 76 79 83 87 88 87 84 79 71 67 62 61 63 69 70 66 63 57 57 52 55 51 41 36 39 43 30 31 31 27 34 30 51 57 53 50
Wind_Direction_500mb
251 251 246 249 258 258 264 259 243 257 286 313 328 328 302 315 303 276 275 306 317 322 324 317 319 317 305 302 293 289 281 273 265 246 234 226 214 202 197 194 211 204 188
255 257 259 257 260 264 266 269 267 262 275 288 298 305 304 297 311 291 282 286 298 302 297 299 298 300 298 296 288 279 270 265 256 247 239 231 227 224 210 205 206 217 216
256 257 261 263 262 264 271 277 277 273 268 280 281 287 282 278 276 274 275 275 283 290 288 286 281 281 274 275 258 254 252 245 244 251 243 239 236 232 224 218 215 211 218
251 255 258 261 262 270 272 276 278 279 274 282 285 282 283 282 280 279 279 280 276 275 283 282 282 278 273 257 254 255 251 248 244 243 241 243 239 235 230 232 231 225 222
254 255 259 259 257 259 268 273 275 278 276 273 275 280 282 282 282 280 280 280 282 281 275 276 279 278 278 275 265 261 256 263 259 251 251 240 239 239 236 235 233 233 232
264 262 262 262 262 261 262 269 272 273 274 276 275 274 272 273 274 277 278 277 281 280 280 276 274 275 276 277 275 263 255 256 256 256 252 255 245 237 235 233 233 234 232
272 271 269 266 270 272 271 272 273 271 272 272 273 277 279 278 278 275 279 280 279 284 279 279 278 275 274 275 275 274 262 252 254 257 259 255 252 246 237 235 233 231 233
274 273 275 276 275 278 281 278 281 283 283 279 274 275 277 278 277 282 279 281 274 282 283 286 281 281 276 274 276 276 273 265 255 257 257 255 251 247 242 237 234 233 231
275 272 273 273 277 277 278 280 281 283 286 289 285 281 270 284 288 290 275 283 278 279 281 284 287 282 279 278 277 277 275 273 271 264 265 258 255 250 245 238 233 232 232
278 281 280 278 278 280 280 281 283 284 285 285 285 284 287 281 284 286 282 277 271 278 283 283 280 282 284 280 281 282 279 276 271 272 271 269 260 257 250 238 233 232 230
288 286 286 284 283 285 284 286 286 287 286 283 285 290 289 285 284 280 281 290 290 288 288 289 285 286 286 286 282 280 280 279 281 273 272 271 271 262 259 249 238 235 231
262 273 278 282 287 287 287 291 287 286 286 288 284 292 282 289 284 286 287 291 295 295 296 293 291 289 289 289 289 287 285 280 282 274 275 270 270 267 262 258 249 233 229
314 302 292 286 282 278 276 276 278 280 284 284 289 286 291 285 287 287 292 286 290 295 289 289 289 291 287 288 288 287 287 285 281 277 274 271 271 268 263 261 259 243 230
337 327 321 315 310 303 297 292 288 286 282 280 283 284 284 286 286 286 284 289 282 288 286 284 289 290 291 291 290 289 287 283 281 276 282 275 275 270 266 264 262 255 237
338 332 328 323 319 315 311 307 305 302 297 295 292 291 290 287 285 287 286 284 280 283 287 286 285 287 288 287 289 288 287 286 287 287 282 274 273 273 273 267 261 258 241
335 332 330 327 324 322 319 316 313 310 306 304 302 299 296 295 292 286 283 281 279 273 275 287 284 283 286 285 288 290 287 292 288 285 282 280 274 275 271 272 261 256 244
334 332 330 328 325 323 320 317 315 313 311 309 308 305 303 303 298 295 288 282 280 277 273 284 284 288 288 286 293 289 291 291 289 286 284 283 280 278 274 269 267 254 242
333 329 325 323 322 320 318 316 313 312 310 309 309 307 305 304 300 299 295 289 283 275 276 278 286 285 284 289 289 293 293 292 290 290 289 286 282 276 275 272 265 248 229
325 323 321 319 318 318 317 315 313 312 310 308 308 307 306 304 302 302 299 294 291 288 279 277 282 286 286 285 288 288 291 291 291 293 292 289 286 281 278 275 262 236 230
318 316 314 314 314 313 313 312 310 308 307 307 306 306 305 304 304 304 301 297 295 289 289 285 283 285 286 287 287 287 290 291 292 293 291 289 287 284 279 269 234 224 226
320 319 319 318 318 317 318 315 312 310 309 307 306 305 304 303 303 303 303 301 299 294 286 284 282 284 285 284 286 292 292 295 295 294 294 292 289 284 277 247 230 230 218
319 318 317 317 316 315 315 314 313 311 310 309 309 308 305 303 302 300 300 299 295 290 288 287 286 286 286 285 286 288 289 289 289 296 296 298 290 283 273 248 231 224 216
317 317 316 315 314 314 315 314 313 310 310 311 311 309 306 305 303 301 299 298 296 294 289 289 288 287 290 290 289 286 286 286 288 290 289 289 288 286 274 250 227 219 209
317 316 315 313 311 311 312 312 311 311 310 311 310 309 306 305 306 305 302 300 302 303 302 297 288 286 285 288 289 288 287 287 282 275 276 277 282 275 267 250 225 219 204
313 312 313 313 311 310 309 308 308 309 309 310 310 308 307 306 308 305 304 304 302 301 302 302 300 297 295 292 289 287 280 279 268 263 269 263 249 225 220 224 211 192 191
310 311 311 311 311 310 308 308 307 309 310 310 309 308 308 312 313 314 306 303 303 307 310 311 310 309 305 303 299 285 278 280 255 261 271 243 223 200 168 178 174 174 181
Wind_Speed_850mb
13 11 11 10 9 9 7 6 4 3 3 3 6 7 7 9 10 11 13 23 22 21 24 23 23 23 21 23 21 21 22 24 24 25 25 28 25 24 23 23 21 21 18
19 18 18 17 15 14 13 12 11 10 10 10 11 13 15 15 16 19 22 29 27 25 24 27 30 29 27 25 25 27 26 27 27 28 28 30 33 29 28 27 25 25 27
26 25 25 23 21 18 17 19 20 22 21 21 19 24 25 26 28 29 34 34 38 37 35 34 33 36 34 34 32 32 32 32 34 33 33 35 36 35 33 32 30 28 28
32 32 31 30 27 27 26 26 28 29 31 35 39 40 42 42 43 44 48 46 48 48 52 48 47 45 44 42 43 43 43 43 44 44 41 41 42 43 42 41 39 35 35
32 34 34 33 32 33 34 37 36 39 40 44 46 46 51 54 57 59 59 58 60 61 62 65 63 60 59 57 52 52 54 54 54 56 55 53 49 49 50 50 47 46 43
33 36 38 39 39 38 41 43 44 48 52 53 57 61 62 65 63 69 67 66 67 70 69 71 73 75 71 70 67 61 60 60 64 66 66 66 63 58 58 57 54 51 50
41 41 43 46 49 46 47 52 56 59 62 62 66 73 78 75 77 77 74 74 74 77 79 76 78 78 80 79 77 77 70 67 69 75 76 78 74 69 65 64 62 59 57
50 49 48 47 46 53 50 52 59 62 72 70 76 76 68 64 80 78 76 75 70 72 73 73 78 78 80 83 86 84 83 79 74 75 81 87 85 81 75 71 70 67 63
45 44 47 49 50 52 54 54 55 62 65 65 72 76 42 37 47 51 51 65 63 69 72 75 76 74 77 81 84 91 90 87 88 83 80 88 90 94 89 81 78 75 70
40 41 42 43 45 48 52 52 55 58 63 71 71 72 85 78 71 56 65 49 63 77 87 83 85 84 84 83 86 89 94 96 93 91 90 91 94 96 100 92 85 80 78
36 36 39 40 46 48 51 52 53 59 61 68 75 75 81 81 85 83 88 79 84 89 94 91 93 97 92 90 91 91 88 87 89 96 99 96 99 101 103 101 99 92 86
32 32 38 43 45 48 53 54 60 63 68 75 71 79 85 81 83 80 91 103 102 102 100 98 99 94 91 87 89 88 86 83 82 84 88 97 99 104 109 106 103 99 92
19 23 29 35 42 48 53 57 60 64 64 71 74 77 82 83 85 87 89 101 103 113 100 94 100 97 93 92 93 89 83 81 75 78 81 87 92 97 112 113 112 110 101
20 23 26 29 32 35 39 44 50 56 64 73 78 81 82 85 85 87 89 88 91 100 99 94 87 83 82 82 77 76 75 72 70 73 79 77 80 86 88 98 117 115 108
24 26 30 32 35 39 43 48 52 55 59 63 67 72 76 79 80 88 86 84 88 94 113 91 77 80 87 83 82 81 83 79 82 80 77 76 80 81 83 86 102 118 124
30 33 36 38 40 42 46 49 53 54 60 64 68 71 75 77 79 78 84 83 82 85 98 119 89 81 92 90 94 94 94 92 90 83 79 81 81 85 87 87 88 111 123
34 38 40 44 47 48 50 54 56 59 62 65 66 70 74 74 77 79 80 81 84 85 94 129 102 101 100 102 105 99 98 91 91 83 79 78 82 86 85 85 85 99 113
40 45 48 51 53 55 57 60 64 66 70 72 74 75 77 76 79 79 79 79 80 81 87 103 118 106 107 111 111 107 105 98 92 88 82 81 83 87 88 82 79 79 104
51 56 60 62 63 64 65 66 68 71 72 73 75 78 81 82 84 81 78 80 78 81 82 85 103 99 101 101 108 105 105 100 95 92 88 87 85 85 84 76 69 83 113
58 60 61 63 64 65 65 67 70 72 74 75 75 77 80 83 86 86 84 85 83 80 78 84 92 101 100 99 104 104 106 101 97 91 89 85 83 80 72 58 64 99 107
62 64 67 66 67 69 70 74 77 81 83 85 83 82 83 84 84 83 83 85 77 74 76 82 87 83 91 85 93 99 103 101 102 94 93 88 76 70 63 56 80 86 81
65 68 71 75 77 76 76 77 81 87 87 87 89 87 85 86 86 87 86 80 67 66 73 79 89 92 98 88 83 89 93 91 85 86 77 76 60 57 53 54 71 72 75
71 75 78 82 85 85 84 85 85 90 93 93 91 91 91 87 85 87 86 84 80 71 62 70 81 89 93 90 86 86 85 85 89 88 74 63 54 47 42 42 61 71 71
77 81 83 86 89 89 87 88 90 91 94 94 92 90 90 89 82 75 77 81 79 77 74 69 68 76 82 86 80 78 74 73 73 70 56 45 42 34 35 29 34 56 71
77 80 82 86 89 89 84 83 86 90 94 94 92 89 86 84 75 59 67 75 79 77 72 68 64 65 69 71 68 65 63 54 57 55 42 35 26 26 27 28 39 59 64
81 83 84 80 79 82 78 76 79 83 87 88 87 84 79 71 67 62 61 63 69 70 66 63 57 57 52 55 51 41 36 39 43 30 31 31 27 34 30 51 57 53 50
Wind_Direction_850mb
251 251 246 249 258 258 264 259 243 257 286 313 328 328 302 315 303 276 275 306 317 322 324 317 319 317 305 302 293 289 281 273 265 246 234 226 214 202 197 194 211 204 188
255 257 259 257 260 264 266 269 267 262 275 288 298 305 304 297 311 291 282 286 298 302 297 299 298 300 298 296 288 279 270 265 256 247 239 231 227 224 210 205 206 217 216
256 257 261 263 262 264 271 277 277 273 268 280 281 287 282 278 276 274 275 275 283 290 288 286 281 281 274 275 258 254 252 245 244 251 243 239 236 232 224 218 215 211 218
251 255 258 261 262 270 272 276 278 279 274 282 285 282 283 282 280 279 279 280 276 275 283 282 282 278 273 257 254 255 251 248 244 243 241 243 239 235 230 232 231 225 222
254 255 259 259 257 259 268 273 275 278 276 273 275 280 282 282 282 280 280 280 282 281 275 276 279 278 278 275 265 261 256 263 259 251 251 240 239 239 236 235 233 233 232
264 262 262 262 262 261 262 269 272 273 274 276 275 274 272 273 274 277 278 277 281 280 280 276 274 275 276 277 275 263 255 256 256 256 252 255 245 237 235 233 233 234 232
272 271 269 266 270 272 271 272 273 271 272 272 273 277 279 278 278 275 279 280 279 284 279 279 278 275 274 275 275 274 262 252 254 257 259 255 252 246 237 235 233 231 233
274 273 275 276 275 278 281 278 281 283 283 279 274 275 277 278 277 282 279 281 274 282 283 286 281 281 276 274 276 276 273 265 255 257 257 255 251 247 242 237 234 233 231
275 272 273 273 277 277 278 280 281 283 286 289 285 281 270 284 288 290 275 283 278 279 281 284 287 282 279 278 277 277 275 273 271 264 265 258 255 250 245 238 233 232 232
278 281 280 278 278 280 280 281 283 284 285 285 285 284 287 281 284 286 282 277 271 278 283 283 280 282 284 280 281 282 279 276 271 272 271 269 260 257 250 238 233 232 230
288 286 286 284 283 285 284 286 286 287 286 283 285 290 289 285 284 280 281 290 290 288 288 289 285 286 286 286 282 280 280 279 281 273 272 271 271 262 259 249 238 235 231
262 273 278 282 287 287 287 291 287 286 286 288 284 292 282 289 284 286 287 291 295 295 296 293 291 289 289 289 289 287 285 280 282 274 275 270 270 267 262 258 249 233 229
314 302 292 286 282 278 276 276 278 280 284 284 289 286 291 285 287 287 292 286 290 295 289 289 289 291 287 288 288 287 287 285 281 277 274 271 271 268 263 261 259 243 230
337 327 321 315 310 303 297 292 288 286 282 280 283 284 284 286 286 286 284 289 282 288 286 284 289 290 291 291 290 289 287 283 281 276 282 275 275 270 266 264 262 255 237
338 332 328 323 319 315 311 307 305 302 297 295 292 291 290 287 285 287 286 284 280 283 287 286 285 287 288 287 289 288 287 286 287 287 282 274 273 273 273 267 261 258 241
335 332 330 327 324 322 319 316 313 310 306 304 302 299 296 295 292 286 283 281 279 273 275 287 284 283 286 285 288 290 287 292 288 285 282 280 274 275 271 272 261 256 244
334 332 330 328 325 323 320 317 315 313 311 309 308 305 303 303 298 295 288 282 280 277 273 284 284 288 288 286 293 289 291 291 289 286 284 283 280 278 274 269 267 254 242
333 329 325 323 322 320 318 316 313 312 310 309 309 307 305 304 300 299 295 289 283 275 276 278 286 285 284 289 289 293 293 292 290 290 289 286 282 276 275 272 265 248 229
325 323 321 319 318 318 317 315 313 312 310 308 308 307 306 304 302 302 299 294 291 288 279 277 282 286 286 285 288 288 291 291 291 293 292 289 286 281 278 275 262 236 230
318 316 314 314 314 313 313 312 310 308 307 307 306 306 305 304 304 304 301 297 295 289 289 285 283 285 286 287 287 287 290 291 292 293 291 289 287 284 279 269 234 224 226
320 319 319 318 318 317 318 315 312 310 309 307 306 305 304 303 303 303 303 301 299 294 286 284 282 284 285 284 286 292 292 295 295 294 294 292 289 284 277 247 230 230 218
319 318 317 317 316 315 315 314 313 311 310 309 309 308 305 303 302 300 300 299 295 290 288 287 286 286 286 285 286 288 289 289 289 296 296 298 290 283 273 248 231 224 216
317 317 316 315 314 314 315 314 313 310 310 311 311 309 306 305 303 301 299 298 296 294 289 289 288 287 290 290 289 286 286 286 288 290 289 289 288 286 274 250 227 219 209
317 316 315 313 311 311 312 312 311 311 310 311 310 309 306 305 306 305 302 300 302 303 302 297 288 286 285 288 289 288 287 287 282 275 276 277 282 275 267 250 225 219 204
313 312 313 313 311 310 309 308 308 309 309 310 310 308 307 306 308 305 304 304 302 301 302 302 300 297 295 292 289 287 280 279 268 263 269 263 249 225 220 224 211 192 191
310 311 311 311 311 310 308 308 307 309 310 310 309 308 308 312 313 314 306 303 303 307 310 311 310 309 305 303 299 285 278 280 255 261 271 243 223 200 168 178 174 174 181